Location: Chircca
(13.7944°S, 72.0608°W)
Time: 05:15:13
(UTC+00:00)

Cosmos 2219 - Pass Details

Date: 14 July 2020
Orbit: 835 x 858 km, 71.1° (Epoch: 14 August)

Event Time Altitude Azimuth Distance (km) Brightness Sun altitude
Exits shadow 09:12:50 25° 165° (SSE) 1,652 4.6 -28.3°
Maximum altitude 09:15:44 45° 108° (ESE) 1,147 4.1 -27.6°
Drops below altitude 10° 09:21:08 10° 36° (NE) 2,466 6.3 -26.4°
Sets 09:23:39 0° 29° (NNE) 3,393 7.0 -25.8°
